AFV115 FQMA-FQCH

Flight info

Callsign AFV115
Flight time 1h 7m
Altitude 39000
Route UVDUS1A EGPON UG656 GESAS DCT AVAGA
Aircraft B738/M-SDE2E3FGHIRWXY/LB1

Departure

Time 2026-04-23 13:31
Airport Maputo Airport (FQMA)

Arrival

Time 2026-04-23 14:38
Airport Chimoio Airport (FQCH)
Time Latitude Longitude Altitude Speed Heading
2026-04-23 13:13 -25.92430 32.57331 125 ft 0 kts 118°
2026-04-23 13:22 -25.92429 32.57330 127 ft 2 kts 118°
2026-04-23 13:23 -25.92422 32.57314 121 ft 2 kts 118°
2026-04-23 13:23 -25.92414 32.57298 124 ft 2 kts 119°
2026-04-23 13:23 -25.92405 32.57282 124 ft 2 kts 108°
2026-04-23 13:23 -25.92407 32.57266 124 ft 1 kts 43°
2026-04-23 13:24 -25.92409 32.57264 124 ft 0 kts 39°
2026-04-23 13:25 -25.92374 32.57288 123 ft 11 kts 28°
2026-04-23 13:25 -25.92302 32.57331 126 ft 12 kts 28°
2026-04-23 13:26 -25.92233 32.57374 131 ft 11 kts 30°
2026-04-23 13:26 -25.92164 32.57415 128 ft 12 kts 26°
2026-04-23 13:26 -25.92063 32.57475 129 ft 22 kts 30°
2026-04-23 13:26 -25.91929 32.57558 127 ft 22 kts 27°
2026-04-23 13:27 -25.91797 32.57640 125 ft 22 kts 29°
2026-04-23 13:27 -25.91665 32.57719 131 ft 21 kts 28°
2026-04-23 13:27 -25.91524 32.57806 133 ft 28 kts 29°
2026-04-23 13:27 -25.91358 32.57907 138 ft 26 kts 28°
2026-04-23 13:28 -25.91204 32.58001 139 ft 24 kts 28°
2026-04-23 13:28 -25.91063 32.58087 141 ft 23 kts 29°
2026-04-23 13:28 -25.90926 32.58171 139 ft 22 kts 29°
2026-04-23 13:28 -25.90793 32.58252 140 ft 22 kts 29°
2026-04-23 13:29 -25.90663 32.58332 140 ft 21 kts 28°
2026-04-23 13:29 -25.90537 32.58408 144 ft 20 kts 29°
2026-04-23 13:29 -25.90418 32.58443 146 ft 17 kts 323°
2026-04-23 13:29 -25.90404 32.58425 146 ft 0 kts 305°
2026-04-23 13:30 -25.90387 32.58396 146 ft 9 kts 301°
2026-04-23 13:30 -25.90355 32.58315 145 ft 5 kts 246°
2026-04-23 13:30 -25.90383 32.58291 144 ft 0 kts 209°
2026-04-23 13:30 -25.90526 32.58204 139 ft 75 kts 208°
2026-04-23 13:31 -25.91269 32.57752 399 ft 151 kts 208°
2026-04-23 13:31 -25.92283 32.57152 1494 ft 173 kts 203°
2026-04-23 13:31 -25.93346 32.56449 2831 ft 188 kts 213°
2026-04-23 13:31 -25.94135 32.55174 3662 ft 222 kts 244°
2026-04-23 13:32 -25.94172 32.53306 4102 ft 266 kts 282°
2026-04-23 13:32 -25.93193 32.51535 4902 ft 284 kts 317°
2026-04-23 13:32 -25.91415 32.50570 5798 ft 289 kts 355°
2026-04-23 13:32 -25.89447 32.50635 7016 ft 281 kts 11°
2026-04-23 13:33 -25.87496 32.50893 8127 ft 283 kts 11°
2026-04-23 13:33 -25.85526 32.51104 9273 ft 285 kts
2026-04-23 13:33 -25.83560 32.51290 10492 ft 277 kts 12°
2026-04-23 13:33 -25.81742 32.51648 12062 ft 253 kts 12°
2026-04-23 13:34 -25.80028 32.51913 13346 ft 248 kts
2026-04-23 13:34 -25.78260 32.52082 14054 ft 261 kts 359°
2026-04-23 13:34 -25.76407 32.52164 14641 ft 277 kts 358°
2026-04-23 13:34 -25.74379 32.52186 14941 ft 303 kts 357°
2026-04-23 13:35 -25.72235 32.52154 15728 ft 308 kts 355°
2026-04-23 13:35 -25.70102 32.52087 16732 ft 308 kts 355°
2026-04-23 13:35 -25.67939 32.51993 17551 ft 314 kts 355°
2026-04-23 13:35 -25.65741 32.51880 18411 ft 317 kts 354°
2026-04-23 13:36 -25.63523 32.51756 19203 ft 320 kts 354°
2026-04-23 13:36 -25.61290 32.51625 19955 ft 324 kts 354°
2026-04-23 13:36 -25.59026 32.51490 20700 ft 327 kts 354°
2026-04-23 13:36 -25.56740 32.51352 21434 ft 331 kts 353°
2026-04-23 13:37 -25.54430 32.51212 22166 ft 335 kts 353°
2026-04-23 13:37 -25.52076 32.51069 22716 ft 344 kts 353°
2026-04-23 13:37 -25.49655 32.50921 23311 ft 351 kts 353°
2026-04-23 13:37 -25.47197 32.50772 23976 ft 355 kts 353°
2026-04-23 13:38 -25.44751 32.50625 24589 ft 357 kts 353°
2026-04-23 13:38 -25.42260 32.50577 25238 ft 363 kts
2026-04-23 13:38 -25.39770 32.51176 25899 ft 368 kts
2026-04-23 13:38 -25.37283 32.51885 26494 ft 371 kts
2026-04-23 13:39 -25.34745 32.52617 27063 ft 374 kts
2026-04-23 13:39 -25.32249 32.53332 27643 ft 376 kts
2026-04-23 13:39 -25.29709 32.54051 28225 ft 378 kts
2026-04-23 13:39 -25.27149 32.54769 28804 ft 381 kts
2026-04-23 13:40 -25.24535 32.55496 29342 ft 384 kts
2026-04-23 13:40 -25.21934 32.56216 29901 ft 386 kts
2026-04-23 13:40 -25.19354 32.56928 30456 ft 388 kts
2026-04-23 13:40 -25.16734 32.57651 30931 ft 390 kts
2026-04-23 13:41 -25.14093 32.58379 31397 ft 392 kts
2026-04-23 13:41 -25.11443 32.59108 31854 ft 394 kts
2026-04-23 13:41 -25.08781 32.59840 32339 ft 395 kts
2026-04-23 13:41 -25.06111 32.60575 32805 ft 396 kts
2026-04-23 13:42 -25.03428 32.61312 33239 ft 398 kts
2026-04-23 13:42 -25.00737 32.62051 33639 ft 400 kts
2026-04-23 13:42 -24.98032 32.62793 34009 ft 403 kts
2026-04-23 13:42 -24.95323 32.63536 34363 ft 406 kts
2026-04-23 13:43 -24.92578 32.64289 34688 ft 407 kts
2026-04-23 13:43 -24.89822 32.65046 35016 ft 409 kts
2026-04-23 13:43 -24.87055 32.65805 35329 ft 411 kts
2026-04-23 13:43 -24.84275 32.66567 35656 ft 413 kts
2026-04-23 13:44 -24.81477 32.67333 35987 ft 415 kts
2026-04-23 13:44 -24.78670 32.68102 36381 ft 416 kts
2026-04-23 13:44 -24.75849 32.68875 36662 ft 419 kts
2026-04-23 13:44 -24.73010 32.69650 36892 ft 422 kts
2026-04-23 13:45 -24.71125 32.70165 37047 ft 423 kts
2026-04-23 13:45 -24.67285 32.71215 37423 ft 426 kts
2026-04-23 13:45 -24.65378 32.71736 37638 ft 426 kts
2026-04-23 13:45 -24.62492 32.72525 37885 ft 429 kts
2026-04-23 13:46 -24.59593 32.73317 38099 ft 431 kts
2026-04-23 13:46 -24.56678 32.74114 38403 ft 431 kts
2026-04-23 13:46 -24.53768 32.74909 38795 ft 429 kts
2026-04-23 13:46 -24.50883 32.75695 39114 ft 427 kts
2026-04-23 13:47 -24.47985 32.76290 39239 ft 423 kts 358°
2026-04-23 13:47 -24.42106 32.76900 39246 ft 426 kts 355°
2026-04-23 13:48 -24.36190 32.77437 39243 ft 427 kts 356°
2026-04-23 13:48 -24.30269 32.78063 39243 ft 427 kts 357°
2026-04-23 13:49 -24.24393 32.78722 39242 ft 427 kts 357°
2026-04-23 13:49 -24.18492 32.79385 39238 ft 426 kts 357°
2026-04-23 13:50 -24.12605 32.80044 39226 ft 424 kts 357°
2026-04-23 13:50 -24.06741 32.80694 39238 ft 423 kts 357°
2026-04-23 13:51 -24.00893 32.81337 39236 ft 422 kts 356°
2026-04-23 13:51 -23.95047 32.81978 39229 ft 422 kts 356°
2026-04-23 13:52 -23.89200 32.82620 39229 ft 422 kts 357°
2026-04-23 13:52 -23.83362 32.83261 39233 ft 422 kts 357°
2026-04-23 13:53 -23.77504 32.83903 39236 ft 423 kts 357°
2026-04-23 13:53 -23.71630 32.84546 39235 ft 425 kts 357°
2026-04-23 13:54 -23.65768 32.85187 39232 ft 427 kts 357°
2026-04-23 13:54 -23.59843 32.85836 39228 ft 429 kts 357°
2026-04-23 13:55 -23.53901 32.86486 39213 ft 430 kts 357°
2026-04-23 13:55 -23.47899 32.87142 39221 ft 431 kts 357°
2026-04-23 13:56 -23.41972 32.87790 39221 ft 432 kts 357°
2026-04-23 13:56 -23.35979 32.88445 39218 ft 433 kts 357°
2026-04-23 13:57 -23.29984 32.89124 39191 ft 433 kts 358°
2026-04-23 13:57 -23.23983 32.89811 39206 ft 434 kts 358°
2026-04-23 13:58 -23.17979 32.90495 39215 ft 434 kts 358°
2026-04-23 13:58 -23.11967 32.91177 39211 ft 435 kts 358°
2026-04-23 13:59 -23.05943 32.91860 39211 ft 435 kts 358°
2026-04-23 13:59 -22.99921 32.92543 39202 ft 436 kts 358°
2026-04-23 14:00 -22.94899 32.93111 39204 ft 437 kts 358°
2026-04-23 14:00 -22.87828 32.93908 39217 ft 438 kts 358°
2026-04-23 14:01 -22.81755 32.94567 39193 ft 439 kts 358°
2026-04-23 14:01 -22.75674 32.95221 39173 ft 440 kts 358°
2026-04-23 14:02 -22.69570 32.95880 39188 ft 441 kts 358°
2026-04-23 14:02 -22.63464 32.96541 39190 ft 442 kts 358°
2026-04-23 14:03 -22.57343 32.97203 39185 ft 442 kts 358°
2026-04-23 14:03 -22.51213 32.97865 39185 ft 443 kts 358°
2026-04-23 14:04 -22.45088 32.98527 39168 ft 442 kts 358°
2026-04-23 14:04 -22.38954 32.99188 39178 ft 443 kts 358°
2026-04-23 14:05 -22.32827 32.99848 39175 ft 443 kts 358°
2026-04-23 14:05 -22.26724 33.00505 39182 ft 444 kts 358°
2026-04-23 14:06 -22.20566 33.01167 39166 ft 445 kts 358°
2026-04-23 14:06 -22.14403 33.01830 39162 ft 445 kts 359°
2026-04-23 14:07 -22.08252 33.02490 39168 ft 444 kts 359°
2026-04-23 14:07 -21.99023 33.03466 39164 ft 444 kts 358°
2026-04-23 14:08 -21.92865 33.04111 39169 ft 444 kts 358°
2026-04-23 14:08 -21.86715 33.04755 39157 ft 444 kts 359°
2026-04-23 14:09 -21.80568 33.05399 39165 ft 444 kts 359°
2026-04-23 14:09 -21.74416 33.06104 39168 ft 446 kts
2026-04-23 14:10 -21.68297 33.07033 39163 ft 447 kts
2026-04-23 14:10 -21.62139 33.08003 39171 ft 447 kts
2026-04-23 14:11 -21.55932 33.08954 39165 ft 448 kts
2026-04-23 14:11 -21.49797 33.09876 39166 ft 448 kts
2026-04-23 14:12 -21.45827 33.10468 39171 ft 448 kts
2026-04-23 14:13 -21.41133 33.11168 39163 ft 448 kts
2026-04-23 14:13 -21.34964 33.12087 39156 ft 448 kts
2026-04-23 14:14 -21.28788 33.13007 39111 ft 449 kts
2026-04-23 14:14 -21.25676 33.13468 38574 ft 453 kts
2026-04-23 14:14 -21.22562 33.13931 37986 ft 450 kts
2026-04-23 14:15 -21.19460 33.14394 37387 ft 449 kts
2026-04-23 14:15 -21.16376 33.14854 36765 ft 447 kts
2026-04-23 14:15 -21.13299 33.15313 36156 ft 446 kts
2026-04-23 14:15 -21.10215 33.15771 35477 ft 447 kts
2026-04-23 14:16 -21.07135 33.16227 34790 ft 447 kts
2026-04-23 14:16 -21.04048 33.16685 34094 ft 448 kts
2026-04-23 14:16 -21.00983 33.17141 33546 ft 443 kts
2026-04-23 14:16 -20.97947 33.17593 33000 ft 438 kts
2026-04-23 14:17 -20.94937 33.18041 32479 ft 434 kts
2026-04-23 14:17 -20.91965 33.18483 31978 ft 429 kts
2026-04-23 14:17 -20.89018 33.18920 31487 ft 425 kts
2026-04-23 14:17 -20.86101 33.19352 31003 ft 421 kts
2026-04-23 14:18 -20.83206 33.19780 30524 ft 418 kts
2026-04-23 14:18 -20.80373 33.20199 30011 ft 415 kts
2026-04-23 14:18 -20.77522 33.20620 29448 ft 412 kts
2026-04-23 14:18 -20.74703 33.21037 28934 ft 407 kts
2026-04-23 14:19 -20.71913 33.21449 28423 ft 403 kts
2026-04-23 14:19 -20.69143 33.21858 27926 ft 399 kts
2026-04-23 14:19 -20.66402 33.22263 27433 ft 396 kts
2026-04-23 14:19 -20.63690 33.22663 26949 ft 393 kts
2026-04-23 14:20 -20.60990 33.23061 26472 ft 390 kts
2026-04-23 14:20 -20.58315 33.23455 25996 ft 387 kts
2026-04-23 14:20 -20.55658 33.23847 25530 ft 384 kts
2026-04-23 14:20 -20.53012 33.24236 25049 ft 382 kts
2026-04-23 14:21 -20.50379 33.24624 24566 ft 381 kts
2026-04-23 14:21 -20.47761 33.25009 24081 ft 380 kts
2026-04-23 14:21 -20.45139 33.25395 23564 ft 379 kts
2026-04-23 14:21 -20.42534 33.25778 23039 ft 377 kts
2026-04-23 14:22 -20.39948 33.26159 22551 ft 374 kts
2026-04-23 14:22 -20.37382 33.26537 22070 ft 371 kts
2026-04-23 14:22 -20.34831 33.26912 21601 ft 368 kts
2026-04-23 14:22 -20.32303 33.27284 21142 ft 366 kts
2026-04-23 14:23 -20.29788 33.27653 20686 ft 363 kts
2026-04-23 14:23 -20.27293 33.28020 20230 ft 361 kts
2026-04-23 14:23 -20.24807 33.28385 19777 ft 359 kts
2026-04-23 14:23 -20.22340 33.28747 19318 ft 358 kts
2026-04-23 14:24 -20.19876 33.29109 18853 ft 357 kts
2026-04-23 14:24 -20.17417 33.29469 18391 ft 355 kts
2026-04-23 14:24 -20.14974 33.29828 17885 ft 353 kts
2026-04-23 14:24 -20.12553 33.30183 17410 ft 351 kts
2026-04-23 14:25 -20.10141 33.30536 16957 ft 348 kts
2026-04-23 14:25 -20.07747 33.30887 16515 ft 346 kts
2026-04-23 14:25 -20.05369 33.31235 16072 ft 344 kts
2026-04-23 14:25 -20.03006 33.31580 15629 ft 342 kts
2026-04-23 14:26 -20.00685 33.31920 15199 ft 340 kts
2026-04-23 14:26 -19.98316 33.32267 14745 ft 339 kts
2026-04-23 14:26 -19.96006 33.32605 14243 ft 340 kts
2026-04-23 14:26 -19.93642 33.32953 13642 ft 344 kts 10°
2026-04-23 14:27 -19.91278 33.33299 13138 ft 342 kts
2026-04-23 14:27 -19.88929 33.33641 12674 ft 339 kts 10°
2026-04-23 14:27 -19.86601 33.33982 12220 ft 337 kts 10°
2026-04-23 14:27 -19.84290 33.34321 11787 ft 334 kts 10°
2026-04-23 14:28 -19.81993 33.34656 11348 ft 332 kts 10°
2026-04-23 14:28 -19.79703 33.34990 10896 ft 331 kts 10°
2026-04-23 14:28 -19.77423 33.35322 10507 ft 329 kts 10°
2026-04-23 14:28 -19.75191 33.35646 10327 ft 319 kts 11°
2026-04-23 14:29 -19.73023 33.35962 10177 ft 309 kts 11°
2026-04-23 14:29 -19.70923 33.36267 10050 ft 300 kts 10°
2026-04-23 14:29 -19.68878 33.36565 9766 ft 296 kts 11°
2026-04-23 14:29 -19.66840 33.36863 9441 ft 294 kts 10°
2026-04-23 14:30 -19.64819 33.37159 9126 ft 293 kts 11°
2026-04-23 14:30 -19.62802 33.37454 8800 ft 292 kts 11°
2026-04-23 14:30 -19.60795 33.37747 8478 ft 291 kts 10°
2026-04-23 14:30 -19.58797 33.38038 8163 ft 289 kts 10°
2026-04-23 14:31 -19.56806 33.38328 7845 ft 289 kts 10°
2026-04-23 14:31 -19.54813 33.38619 7509 ft 289 kts 10°
2026-04-23 14:31 -19.52823 33.38909 7162 ft 289 kts 10°
2026-04-23 14:31 -19.50841 33.39197 6961 ft 284 kts 10°
2026-04-23 14:32 -19.49554 33.39384 6860 ft 280 kts 10°
2026-04-23 14:32 -19.47649 33.39660 6718 ft 272 kts 10°
2026-04-23 14:32 -19.45796 33.39929 6616 ft 265 kts 11°
2026-04-23 14:32 -19.43987 33.40192 6491 ft 258 kts 11°
2026-04-23 14:33 -19.42258 33.40442 6397 ft 244 kts 11°
2026-04-23 14:33 -19.40616 33.40669 6170 ft 235 kts
2026-04-23 14:33 -19.38505 33.40859 5842 ft 224 kts
2026-04-23 14:33 -19.36994 33.40988 5701 ft 211 kts
2026-04-23 14:34 -19.35546 33.41115 5490 ft 206 kts
2026-04-23 14:34 -19.34589 33.41200 5361 ft 201 kts
2026-04-23 14:34 -19.33232 33.41320 5176 ft 192 kts
2026-04-23 14:34 -19.31920 33.41434 4990 ft 186 kts
2026-04-23 14:35 -19.30662 33.41543 4799 ft 182 kts
2026-04-23 14:35 -19.29408 33.41651 4621 ft 180 kts
2026-04-23 14:35 -19.28193 33.41756 4453 ft 172 kts
2026-04-23 14:35 -19.27021 33.41857 4274 ft 164 kts
2026-04-23 14:36 -19.25897 33.41954 4047 ft 159 kts
2026-04-23 14:36 -19.24827 33.42046 3896 ft 153 kts
2026-04-23 14:36 -19.23741 33.42141 3663 ft 156 kts
2026-04-23 14:36 -19.22675 33.42232 3486 ft 153 kts
2026-04-23 14:37 -19.21628 33.42322 3241 ft 152 kts
2026-04-23 14:37 -19.20580 33.42408 3088 ft 150 kts
2026-04-23 14:37 -19.19553 33.42495 2948 ft 146 kts
2026-04-23 14:37 -19.18546 33.42591 2804 ft 146 kts
2026-04-23 14:38 -19.17541 33.42661 2629 ft 144 kts
2026-04-23 14:38 -19.16551 33.42751 2418 ft 139 kts
2026-04-23 14:38 -19.15630 33.42836 2292 ft 124 kts
2026-04-23 14:38 -19.15101 33.42887 2287 ft 30 kts
2026-04-23 14:39 -19.15012 33.42880 2297 ft 0 kts 328°
2026-04-23 14:39 -19.15004 33.42880 2292 ft 5 kts
2026-04-23 14:39 -19.14931 33.42897 2287 ft 13 kts 12°
2026-04-23 14:39 -19.14843 33.42907 2286 ft 13 kts 355°
2026-04-23 14:40 -19.14796 33.42837 2285 ft 13 kts 272°
2026-04-23 14:40 -19.14794 33.42801 2284 ft 0 kts 272°
2026-04-23 14:41 -19.14794 33.42792 2284 ft 7 kts 272°
2026-04-23 14:41 -19.14787 33.42711 2284 ft 6 kts 276°
2026-04-23 14:41 -19.14807 33.42680 2279 ft 5 kts 190°
2026-04-23 14:41 -19.14810 33.42680 2280 ft 1 kts 189°
2026-04-23 14:42 -19.14815 33.42679 2292 ft 1 kts 188°
2026-04-23 14:42 -19.14819 33.42679 2291 ft 1 kts 186°
2026-04-23 14:42 -19.14822 33.42678 2290 ft 0 kts 186°